Location: Biltmore Gardens
(41.6070°N, 83.4666°W)
Time: 14:28:55
(UTC+00:00)

CZ-4C R/B - Pass Details

Date: 14 July 2020
Orbit: 409 x 492 km, 97.7° (Epoch: 04 August)

Event Time Altitude Azimuth Distance (km) Brightness Sun altitude
Rises 08:35:59 0° 149° (SSE) 2,383 6.4 -14.8°
Reaches altitude 10° 08:38:06 10° 140° (SE) 1,509 5.5 -14.5°
Maximum altitude 08:41:03 35° 73° (ENE) 705 4.4 -14.2°
Drops below altitude 10° 08:43:59 10° 6° (N) 1,495 6.3 -13.8°
Sets 08:46:04 0° 357° (N) 2,357 7.2 -13.5°
